N5VKM Weather Reports


Display with metric or nautical units.
time (UTC)temp
F
wind
direction
speed
MPH
gust
MPH
rain 1hr
in
rain 24hr
in
rain mn
in
humidity
%
barometer
mb
20260508025547 64 335 0.0 0.0 0.00 0.00 0.00 75 1015.7
20260508025036 64 335 0.0 0.0 0.00 0.00 0.00 75 1015.6
20260508024543 64 335 0.0 0.0 0.00 0.00 0.00 74 1015.6
20260508024101 64 334 0.0 0.0 0.00 0.00 0.00 74 1015.5
20260508023549 65 334 0.0 0.0 0.00 0.00 0.00 74 1015.5
20260508023040 65 334 0.0 0.0 0.00 0.00 0.00 73 1015.3
20260508022548 65 335 0.0 0.0 0.00 0.00 0.00 73 1015.3
20260508022035 65 334 0.0 0.0 0.00 0.00 0.00 73 1015.3
20260508021609 65 334 0.0 0.0 0.00 0.00 0.00 73 1015.2
20260508021035 65 336 0.0 0.0 0.00 0.00 0.00 73 1015.2
20260508020529 65 336 0.0 0.0 0.00 0.00 0.00 72 1015.2
20260508020109 66 335 0.0 0.0 0.00 0.00 0.00 72 1015.1
20260508015541 66 337 0.0 0.0 0.00 0.00 0.00 72 1015.3
20260508015033 66 336 0.0 0.0 0.00 0.00 0.00 72 1015.3
20260508014540 66 336 0.0 0.0 0.00 0.00 0.00 71 1015.1
20260508014050 66 335 0.0 0.0 0.00 0.00 0.00 71 1015.1
20260508013542 66 336 0.0 0.0 0.00 0.00 0.00 71 1015.1
20260508013034 67 335 0.0 0.0 0.00 0.00 0.00 71 1015.0
20260508012545 67 336 0.0 0.0 0.00 0.00 0.00 70 1015.1
20260508012032 67 336 0.0 0.0 0.00 0.00 0.00 70 1015.1
20260508011539 67 336 0.0 0.0 0.00 0.00 0.00 69 1015.1
20260508011034 68 335 0.0 0.0 0.00 0.00 0.00 68 1014.9
20260508010548 68 335 0.0 0.0 0.00 0.00 0.00 66 1014.8
20260508010036 69 334 0.0 0.0 0.00 0.00 0.00 62 1014.7
20260508005546 69 334 0.0 0.0 0.00 0.00 0.00 58 1014.7
20260508005034 69 333 0.0 0.0 0.00 0.00 0.00 57 1014.8
20260508004548 70 333 0.0 0.0 0.00 0.00 0.00 57 1014.7
20260508004038 70 333 0.0 0.0 0.00 0.00 0.00 57 1014.8
20260508003532 70 333 0.0 0.0 0.00 0.00 0.00 57 1014.8
20260508003047 70 333 0.0 0.0 0.00 0.00 0.00 56 1014.8
20260508002538 70 333 0.0 0.0 0.00 0.00 0.00 54 1015.0
20260508002044 70 332 0.0 0.0 0.00 0.00 0.00 54 1015.0
20260508001532 71 332 0.0 0.0 0.00 0.00 0.00 54 1015.1
20260508001106 71 333 0.0 0.0 0.00 0.00 0.00 54 1015.0
20260508000539 71 333 0.0 0.0 0.00 0.00 0.00 54 1014.9
20260508000032 71 332 0.0 0.0 0.00 0.00 0.00 54 1014.9
20260507235607 71 332 0.0 0.0 0.00 0.00 0.00 53 1014.8
20260507234532 71 333 0.0 0.0 0.00 0.00 0.00 53 1014.9
20260507234059 72 333 0.0 0.0 0.00 0.00 0.00 54 1014.9
20260507233546 72 332 0.0 0.0 0.00 0.00 0.00 52 1014.9
20260507233033 72 333 0.0 0.0 0.00 0.00 0.00 53 1014.9
20260507232600 72 332 0.0 0.0 0.00 0.00 0.00 52 1014.9
20260507232027 72 333 0.0 0.0 0.00 0.00 0.00 52 1014.9
20260507231557 72 333 0.0 0.0 0.00 0.00 0.00 52 1014.9
20260507231044 72 331 0.0 0.0 0.00 0.00 0.00 52 1014.9
20260507230555 72 333 0.0 0.0 0.00 0.00 0.00 51 1015.0
20260507230042 72 332 0.0 0.0 0.00 0.00 0.00 51 1015.1
20260507225533 72 332 0.0 0.0 0.00 0.00 0.00 50 1015.1
20260507225041 72 332 0.0 0.0 0.00 0.00 0.00 50 1015.2
20260507224527 72 333 0.0 0.0 0.00 0.00 0.00 49 1015.2
20260507224101 73 333 0.0 0.0 0.00 0.00 0.00 50 1015.2
20260507223530 73 333 0.0 0.0 0.00 0.00 0.00 49 1015.4
20260507223039 73 333 0.0 0.0 0.00 0.00 0.00 49 1015.3
20260507222527 73 332 0.0 0.0 0.00 0.00 0.00 50 1015.4
20260507222040 73 332 0.0 0.0 0.00 0.00 0.00 48 1015.4
20260507221546 74 332 0.0 0.0 0.00 0.00 0.00 47 1015.4
20260507221044 74 331 0.0 0.0 0.00 0.00 0.00 48 1015.4
20260507220602 74 332 0.0 0.0 0.00 0.00 0.00 48 1015.4
20260507220049 74 332 0.0 0.0 0.00 0.00 0.00 47 1015.3
20260507215539 75 332 0.0 0.0 0.00 0.00 0.00 46 1015.4
20260507215053 75 331 0.0 0.0 0.00 0.00 0.00 46 1015.4
20260507214543 75 331 0.0 0.0 0.00 0.00 0.00 46 1015.4
20260507214032 75 333 0.0 0.0 0.00 0.00 0.00 48 1015.4
20260507213542 75 331 0.0 0.0 0.00 0.00 0.00 46 1015.5
20260507213030 75 332 0.0 0.0 0.00 0.00 0.00 45 1015.6
20260507212539 75 331 0.0 0.0 0.00 0.00 0.00 46 1015.7
20260507212049 75 331 0.0 0.0 0.00 0.00 0.00 46 1015.8
20260507211557 75 332 0.0 0.0 0.00 0.00 0.00 46 1015.8
20260507211047 75 331 0.0 0.0 0.00 0.00 0.00 46 1015.8
20260507210537 75 338 0.0 0.0 0.00 0.00 0.00 47 1015.7
20260507210045 75 332 0.0 0.0 0.00 0.00 0.00 47 1015.6
20260507205558 74 338 0.0 0.0 0.00 0.00 0.00 46 1015.6
20260507205044 75 331 0.0 0.0 0.00 0.00 0.00 46 1015.7
20260507204533 75 332 0.0 0.0 0.00 0.00 0.00 46 1015.9
20260507204047 75 331 0.0 0.0 0.00 0.00 0.00 47 1016.0
20260507203540 75 331 0.0 0.0 0.00 0.00 0.00 47 1016.0
20260507203033 76 336 0.0 0.0 0.00 0.00 0.00 46 1015.9
20260507202542 76 330 0.0 0.0 0.00 0.00 0.00 47 1016.1
20260507202051 76 330 0.0 0.0 0.00 0.00 0.00 48 1016.2
20260507201537 75 330 0.0 0.0 0.00 0.00 0.00 47 1016.3
20260507201038 75 332 0.0 0.0 0.00 0.00 0.00 48 1016.2
20260507200527 75 330 0.0 0.0 0.00 0.00 0.00 47 1016.4
20260507200045 75 331 0.0 0.0 0.00 0.00 0.00 47 1016.5
20260507195534 74 330 0.0 0.0 0.00 0.00 0.00 48 1016.5
20260507195042 75 332 0.0 0.0 0.00 0.00 0.00 46 1016.7
20260507194549 75 331 0.0 0.0 0.00 0.00 0.00 46 1016.7
20260507194043 75 331 0.0 0.0 0.00 0.00 0.00 47 1016.7
20260507193531 75 338 0.0 0.0 0.00 0.00 0.00 46 1016.6
20260507193103 75 330 0.0 0.0 0.00 0.00 0.00 46 1016.8
20260507192533 74 331 0.0 0.0 0.00 0.00 0.00 45 1017.0
20260507192041 74 338 0.0 0.0 0.00 0.00 0.00 47 1017.1
20260507191530 73 338 0.0 0.0 0.00 0.00 0.00 48 1017.0
20260507191048 73 331 0.0 0.0 0.00 0.00 0.00 48 1017.1
20260507190537 74 338 0.0 0.0 0.00 0.00 0.00 47 1017.1
20260507190027 74 331 0.0 0.0 0.00 0.00 0.00 46 1017.2
20260507185538 74 331 0.0 0.0 0.00 0.01 0.00 47 1017.2
20260507185027 73 360 0.0 0.0 0.00 0.01 0.00 48 1017.2
20260507184542 73 333 0.0 0.0 0.00 0.01 0.00 46 1017.2
20260507184029 73 331 0.0 0.0 0.00 0.01 0.00 48 1017.2
20260507183544 73 338 0.0 0.0 0.00 0.01 0.00 47 1017.5
20260507183050 73 330 0.0 0.0 0.00 0.01 0.00 49 1017.4
20260507182546 73 330 0.0 0.0 0.00 0.01 0.00 49 1017.5
20260507182040 73 330 0.0 0.0 0.00 0.01 0.00 48 1017.6
20260507181531 72 331 0.0 0.0 0.00 0.01 0.00 51 1017.7
20260507181041 72 331 0.0 0.0 0.00 0.01 0.00 51 1017.8
20260507180535 71 338 0.0 0.0 0.00 0.01 0.00 50 1018.0
20260507180044 71 331 0.0 0.0 0.00 0.01 0.00 50 1018.1
20260507175552 71 331 0.0 0.0 0.00 0.02 0.00 50 1018.3
20260507175042 71 331 0.0 0.0 0.00 0.02 0.00 51 1018.4
20260507174530 71 331 0.0 0.0 0.00 0.02 0.00 51 1018.5
20260507174103 70 333 0.0 0.0 0.00 0.02 0.00 54 1018.7
20260507173533 70 332 0.0 0.0 0.00 0.02 0.00 55 1018.8
20260507173045 70 333 0.0 0.0 0.00 0.02 0.00 52 1019.0
20260507172532 69 331 0.0 0.0 0.00 0.02 0.00 53 1019.1
20260507172040 69 333 0.0 0.0 0.00 0.02 0.00 55 1019.1
20260507171535 69 333 0.0 0.0 0.00 0.02 0.00 54 1019.2
20260507171059 69 332 0.0 0.0 0.00 0.02 0.00 54 1019.3
20260507170533 69 331 0.0 0.0 0.00 0.02 0.00 55 1019.2
20260507170027 69 333 0.0 0.0 0.00 0.02 0.00 57 1019.3
20260507165546 68 331 0.0 0.0 0.00 0.03 0.00 56 1019.4
20260507165101 68 337 0.0 0.0 0.00 0.03 0.00 56 1019.4
20260507164532 67 331 0.0 0.0 0.00 0.03 0.00 55 1019.4
20260507164046 68 337 0.0 0.0 0.00 0.03 0.00 54 1019.5
20260507163539 68 338 0.0 0.0 0.00 0.03 0.00 57 1019.6
20260507163030 68 334 0.0 0.0 0.00 0.03 0.00 56 1019.6
20260507162538 68 338 0.0 0.0 0.00 0.03 0.00 55 1019.7
20260507162026 68 332 0.0 0.0 0.00 0.03 0.00 58 1019.6
20260507161539 67 333 0.0 0.0 0.00 0.03 0.00 60 1019.5
20260507161032 67 332 0.0 0.0 0.00 0.03 0.00 60 1019.7
20260507160539 66 332 0.0 0.0 0.00 0.03 0.00 62 1019.7
20260507160046 66 331 0.0 0.0 0.00 0.03 0.00 60 1019.7
20260507155539 66 331 0.0 0.0 0.00 0.04 0.00 60 1019.7
20260507155036 66 331 0.0 0.0 0.00 0.04 0.00 61 1019.7
20260507154607 65 338 0.0 0.0 0.00 0.04 0.00 62 1019.8
20260507154103 65 333 0.0 0.0 0.00 0.04 0.00 63 1019.8
20260507153532 64 333 0.0 0.0 0.00 0.04 0.00 64 1019.8
20260507153043 64 332 0.0 0.0 0.00 0.04 0.00 65 1020.0
20260507152534 64 333 0.0 0.0 0.00 0.04 0.00 64 1020.0
20260507152043 64 338 0.0 0.0 0.00 0.04 0.00 63 1020.1
20260507151529 64 332 0.0 0.0 0.00 0.04 0.00 63 1020.2
20260507151040 64 333 0.0 0.0 0.00 0.04 0.00 64 1020.1
20260507150531 64 339 0.0 0.0 0.00 0.04 0.00 65 1020.1
20260507150039 63 336 0.0 0.0 0.00 0.04 0.00 67 1020.1
20260507145530 63 332 0.0 0.0 0.00 0.04 0.00 67 1020.2
20260507145036 62 333 0.0 0.0 0.00 0.04 0.00 68 1020.2
20260507144544 62 333 0.0 0.0 0.00 0.04 0.00 68 1020.3
20260507144031 62 333 0.0 0.0 0.00 0.04 0.00 67 1020.3
20260507143602 62 333 0.0 0.0 0.00 0.04 0.00 68 1020.4
20260507143031 62 333 0.0 0.0 0.00 0.04 0.00 68 1020.5
20260507142605 62 333 0.0 0.0 0.00 0.04 0.00 71 1020.5
20260507142058 61 333 0.0 0.0 0.00 0.04 0.00 71 1020.7
20260507141546 61 333 0.0 0.0 0.00 0.04 0.00 73 1020.7
20260507141036 60 332 0.0 0.0 0.00 0.04 0.00 72 1020.6
20260507140532 60 333 0.0 0.0 0.00 0.04 0.00 73 1020.6
20260507140043 60 332 0.0 0.0 0.00 0.04 0.00 74 1020.6
20260507135530 60 332 0.0 0.0 0.00 0.04 0.00 76 1020.6
20260507135038 59 333 0.0 0.0 0.00 0.04 0.00 79 1020.6
20260507134608 58 333 0.0 0.0 0.00 0.04 0.00 80 1020.7
20260507134035 58 333 0.0 0.0 0.00 0.04 0.00 80 1020.6
20260507133541 58 332 0.0 0.0 0.00 0.04 0.00 82 1020.7
20260507133033 57 333 0.0 0.0 0.00 0.04 0.00 84 1020.6
20260507132542 56 340 0.0 0.0 0.00 0.04 0.00 86 1020.7
20260507132030 56 340 0.0 0.0 0.00 0.04 0.00 89 1020.6
20260507131544 55 339 0.0 0.0 0.00 0.04 0.00 90 1020.6
20260507131032 54 339 0.0 0.0 0.00 0.04 0.00 91 1020.6
20260507130542 53 339 0.0 0.0 0.00 0.04 0.00 91 1020.6
20260507130036 53 339 0.0 0.0 0.00 0.04 0.00 91 1020.5
20260507125528 52 339 0.0 0.0 0.00 0.04 0.00 91 1020.5
20260507125042 52 336 0.0 0.0 0.00 0.04 0.00 92 1020.4
20260507124530 52 336 0.0 0.0 0.00 0.04 0.00 92 1020.4
20260507124043 51 340 0.0 0.0 0.00 0.04 0.00 92 1020.4
20260507123530 51 340 0.0 0.0 0.00 0.04 0.00 92 1020.4
20260507123043 51 340 0.0 0.0 0.00 0.04 0.00 92 1020.3
20260507122536 51 340 0.0 0.0 0.00 0.04 0.00 92 1020.2
20260507122047 51 340 0.0 0.0 0.00 0.04 0.00 92 1020.1
20260507121535 50 340 0.0 0.0 0.00 0.04 0.00 92 1020.1
20260507121046 50 340 0.0 0.0 0.00 0.04 0.00 92 1020.1
20260507120532 50 340 0.0 0.0 0.00 0.04 0.00 92 1019.9
20260507120041 50 340 0.0 0.0 0.00 0.04 0.00 92 1020.1
20260507115549 50 340 0.0 0.0 0.00 0.04 0.00 92 1019.9
20260507115037 50 340 0.0 0.0 0.00 0.04 0.00 92 1019.7
20260507114544 50 340 0.0 0.0 0.00 0.04 0.00 92 1019.6
20260507114053 49 333 0.0 0.0 0.00 0.04 0.00 91 1019.6
20260507113541 49 333 0.0 0.0 0.00 0.04 0.00 91 1019.5
20260507113027 49 333 0.0 0.0 0.00 0.04 0.00 91 1019.4
20260507112537 49 333 0.0 0.0 0.00 0.04 0.00 91 1019.4
20260507112032 49 333 0.0 0.0 0.00 0.04 0.00 91 1019.4
20260507111546 50 333 0.0 0.0 0.00 0.04 0.00 91 1019.2
20260507111039 50 333 0.0 0.0 0.00 0.04 0.00 91 1019.0
20260507110546 50 333 0.0 0.0 0.00 0.04 0.00 91 1019.1
20260507110031 50 333 0.0 0.0 0.00 0.04 0.00 91 1018.8
20260507105543 50 333 0.0 0.0 0.00 0.04 0.00 91 1018.8
20260507105029 50 333 0.0 0.0 0.00 0.04 0.00 91 1018.8
20260507104542 50 333 0.0 0.0 0.00 0.04 0.00 91 1018.8
20260507104033 51 333 0.0 0.0 0.00 0.04 0.00 91 1018.9
20260507103602 51 333 0.0 0.0 0.00 0.04 0.00 91 1018.7
20260507103029 51 333 0.0 0.0 0.00 0.04 0.00 91 1018.5
20260507102543 51 333 0.0 0.0 0.00 0.04 0.00 91 1018.4
20260507102036 51 333 0.0 0.0 0.00 0.04 0.00 91 1018.3
20260507101546 51 333 0.0 0.0 0.00 0.04 0.00 91 1018.2
20260507101035 51 333 0.0 0.0 0.00 0.04 0.00 91 1018.1
20260507100532 51 333 0.0 0.0 0.00 0.04 0.00 91 1018.0
20260507100040 51 333 0.0 0.0 0.00 0.04 0.00 91 1018.1
20260507095527 51 333 0.0 0.0 0.00 0.04 0.00 91 1018.1
20260507095104 51 333 0.0 0.0 0.00 0.04 0.00 91 1018.1
20260507094532 51 333 0.0 0.0 0.00 0.04 0.00 91 1018.1
20260507094040 51 333 0.0 0.0 0.00 0.04 0.00 91 1017.9
20260507093553 52 333 0.0 0.0 0.00 0.04 0.00 91 1018.1
20260507093102 52 333 0.0 0.0 0.00 0.04 0.00 91 1018.0
20260507092532 52 333 0.0 0.0 0.00 0.04 0.00 91 1018.1
20260507092041 52 333 0.0 0.0 0.00 0.04 0.00 91 1018.1
20260507091533 52 333 0.0 0.0 0.00 0.04 0.00 91 1018.0
20260507091045 52 333 0.0 0.0 0.00 0.04 0.00 91 1018.0
20260507090532 52 333 0.0 0.0 0.00 0.04 0.00 91 1018.0
20260507085532 52 333 0.0 0.0 0.00 0.04 0.00 91 1018.0
20260507085059 52 333 0.0 0.0 0.00 0.04 0.00 90 1018.1
20260507084545 52 333 0.0 0.0 0.00 0.04 0.00 90 1018.0
20260507084032 52 333 0.0 0.0 0.00 0.04 0.00 90 1018.0
20260507083539 52 333 0.0 0.0 0.00 0.04 0.00 90 1017.9
20260507083029 52 333 0.0 0.0 0.00 0.04 0.00 90 1017.8
20260507082543 52 333 0.0 0.0 0.00 0.04 0.00 90 1017.8
20260507082034 53 333 0.0 0.0 0.00 0.04 0.00 91 1017.7
20260507081535 53 333 0.0 0.0 0.00 0.04 0.00 91 1017.7
20260507081047 53 333 0.0 0.0 0.00 0.04 0.00 91 1017.6
20260507080555 53 333 0.0 0.0 0.00 0.04 0.00 91 1017.6
20260507080042 53 333 0.0 0.0 0.00 0.04 0.00 91 1017.6
20260507075531 53 333 0.0 0.0 0.00 0.04 0.00 91 1017.7
20260507075040 53 333 0.0 0.0 0.00 0.04 0.00 90 1017.7
20260507074607 53 334 0.0 0.0 0.00 0.04 0.00 90 1017.8
20260507074039 53 334 0.0 0.0 0.00 0.04 0.00 90 1017.9
20260507073546 53 334 0.0 0.0 0.00 0.04 0.00 90 1017.9
20260507073033 53 334 0.0 0.0 0.00 0.04 0.00 90 1018.0
20260507072543 53 334 0.0 0.0 0.00 0.04 0.00 90 1018.1
20260507072032 53 334 0.0 0.0 0.00 0.04 0.00 90 1018.1
20260507071559 53 334 0.0 0.0 0.00 0.04 0.00 90 1018.1
20260507071030 53 334 0.0 0.0 0.00 0.04 0.00 90 1018.1
20260507070545 54 334 0.0 0.0 0.00 0.04 0.00 90 1018.0
20260507070034 54 334 0.0 0.0 0.00 0.04 0.00 90 1017.9
20260507065546 54 334 0.0 0.0 0.00 0.04 0.00 90 1017.9
20260507065033 54 334 0.0 0.0 0.00 0.04 0.00 89 1017.9
20260507064541 54 334 0.0 0.0 0.00 0.04 0.00 89 1017.9
20260507064027 54 334 0.0 0.0 0.00 0.04 0.00 89 1017.8
20260507063540 54 334 0.0 0.0 0.00 0.04 0.00 89 1017.8
20260507063047 54 334 0.0 0.0 0.00 0.04 0.00 89 1017.7
20260507062535 54 334 0.0 0.0 0.00 0.04 0.00 89 1017.5
20260507062045 54 334 0.0 0.0 0.00 0.04 0.00 88 1017.4
20260507061533 54 334 0.0 0.0 0.00 0.04 0.00 88 1017.2
20260507061040 54 334 0.0 0.0 0.00 0.04 0.00 88 1017.2
20260507060533 54 334 0.0 0.0 0.00 0.04 0.00 87 1017.3
20260507060027 55 334 0.0 0.0 0.00 0.04 0.00 87 1017.1
20260507055539 55 334 0.0 0.0 0.00 0.04 0.00 87 1017.2
20260507055046 55 333 0.0 0.0 0.00 0.04 0.00 86 1017.2
20260507054538 55 333 0.0 0.0 0.00 0.04 0.00 86 1017.3
20260507054045 55 334 0.0 0.0 0.00 0.04 0.00 85 1017.3
20260507053534 55 333 0.0 0.0 0.00 0.04 0.00 85 1017.3
20260507053045 55 333 0.0 0.0 0.00 0.04 0.00 85 1017.4
20260507052535 56 333 0.0 0.0 0.00 0.04 0.00 84 1017.4
20260507052045 56 333 0.0 0.0 0.00 0.04 0.00 84 1017.5
20260507051538 56 333 0.0 0.0 0.00 0.04 0.00 84 1017.5
20260507051107 56 333 0.0 0.0 0.00 0.04 0.00 83 1017.5
20260507050538 56 333 0.0 0.0 0.00 0.04 0.00 83 1017.5
20260507050029 56 333 0.0 0.0 0.00 0.04 0.00 83 1017.4
20260507045601 56 333 0.0 0.0 0.00 0.04 0.04 82 1017.4
20260507045035 57 333 0.0 0.0 0.00 0.04 0.04 82 1017.4
20260507044558 57 333 0.0 0.0 0.00 0.04 0.04 82 1017.6
20260507044035 57 333 0.0 0.0 0.00 0.04 0.04 81 1017.7
20260507043528 57 333 0.0 0.0 0.00 0.04 0.04 81 1017.6
20260507043043 57 333 0.0 0.0 0.00 0.04 0.04 81 1017.7
20260507042534 57 333 0.0 0.0 0.00 0.04 0.04 80 1017.8
20260507042040 58 333 0.0 0.0 0.00 0.04 0.04 80 1017.8
20260507041551 58 333 0.0 0.0 0.00 0.04 0.04 79 1017.7
20260507041041 58 333 0.0 0.0 0.00 0.04 0.04 79 1017.7
20260507040531 58 333 0.0 0.0 0.00 0.04 0.04 79 1017.7
20260507040039 58 333 0.0 0.0 0.00 0.04 0.04 79 1017.7
20260507035528 58 333 0.0 0.0 0.00 0.04 0.04 78 1017.8
20260507035103 58 333 0.0 0.0 0.00 0.04 0.04 78 1018.0
20260507034556 58 334 0.0 0.0 0.00 0.04 0.04 78 1017.9
20260507034109 58 333 0.0 0.0 0.00 0.04 0.04 78 1017.8
20260507033539 58 333 0.0 0.0 0.00 0.04 0.04 78 1017.7
20260507033047 58 332 0.0 0.0 0.00 0.04 0.04 77 1017.8
20260507032539 59 333 0.0 0.0 0.00 0.04 0.04 77 1017.7
20260507032028 59 333 0.0 0.0 0.00 0.04 0.04 77 1017.7
20260507031539 59 333 0.0 0.0 0.00 0.04 0.04 77 1017.6
20260507031046 59 333 0.0 0.0 0.00 0.04 0.04 77 1017.6
20260507030537 59 333 0.0 0.0 0.00 0.04 0.04 77 1017.5
20260507030045 59 333 0.0 0.0 0.00 0.04 0.04 76 1017.4